Dewpoint
-8 1 4 9 8 8 6 5 6 1 0 0 1 2 3 3 4 5 5 5 5 5 9 8 7 7 7 6 6 6 6 5 5 5 2 -2 -6 -16 -19 -17 -13 -11 -5 -2 -1 -1 -4 -8 -16
-7 1 7 9 6 2 -1 4 4 -0 0 1 0 1 1 2 4 5 5 5 5 5 8 8 7 7 6 6 6 6 6 5 4 0 -6 -14 -18 -21 -19 -18 -10 -9 -10 -8 -5 -7 -12 -19 -22
-6 0 7 7 8 3 1 1 -1 -1 0 -1 0 0 1 3 4 5 5 5 6 5 6 7 7 7 6 6 6 6 4 2 -4 -10 -19 -21 -22 -21 -17 -12 -14 -7 -7 -5 -9 -14 -22 -26 -27
-2 6 6 7 5 5 3 1 -2 0 -1 -2 -0 0 1 2 3 4 5 5 5 4 4 7 7 7 6 6 5 5 -1 -15 -19 -22 -23 -20 -20 -17 -6 -6 -10 -6 -9 -10 -8 -16 -24 -21 -22
3 5 6 6 5 4 1 -1 -2 -0 -1 -1 -1 0 2 3 3 4 4 4 3 2 3 7 5 -2 -1 3 -1 -1 -11 -20 -21 -20 -16 -13 -16 -16 -8 -5 -6 -6 -8 -9 -3 -9 -5 -6 -5
1 1 4 3 2 -2 -3 -4 -2 -1 -2 -1 -1 0 2 3 3 4 4 3 3 1 3 5 1 -7 -9 -9 -19 -14 -15 -12 -12 -14 -10 -10 -12 -13 -7 -12 -6 0 -2 -1 1 2 -3 -9 -13
3 3 3 1 1 -1 -4 -5 -3 -2 -2 -2 -1 1 2 3 3 3 3 3 1 -1 2 1 -4 -16 -19 -16 -15 -12 -10 -10 -10 -11 -11 -11 -12 -13 -13 -14 -10 -3 -2 -4 0 -4 -14 -19 -19
2 1 1 -0 -1 -4 -6 -3 -4 -3 -2 -2 -2 -0 2 2 3 3 3 2 0 2 2 -10 -12 -17 -12 -11 -11 -11 -11 -11 -11 -11 -11 -12 -13 -14 -13 -14 -16 -19 -19 -10 -2 -9 -17 -21 -21
0 -1 -2 -4 -4 -6 -7 -6 -4 -3 -2 -2 -2 -2 -2 0 3 4 3 2 3 2 -9 -14 -12 -11 -11 -10 -10 -10 -10 -11 -11 -12 -13 -14 -14 -14 -13 -14 -15 -18 -21 -20 -18 -19 -18 -20 -19
-4 -2 -4 -6 -6 -8 -9 -7 -6 -3 -2 -2 -2 -1 -1 1 3 3 3 2 3 -6 -11 -11 -9 -11 -9 -10 -9 -9 -9 -9 -11 -12 -13 -14 -14 -13 -12 -13 -14 -14 -15 -18 -21 -22 -20 -19 -19
-4 -5 -6 -9 -9 -8 -9 -9 -4 -3 -2 -2 -2 0 0 2 4 4 3 1 -1 -3 -9 -9 -11 -10 -9 -8 -7 -7 -8 -9 -11 -12 -13 -14 -14 -13 -12 -12 -12 -12 -13 -15 -18 -20 -21 -21 -21
-9 -9 -9 -11 -10 -10 -10 -7 -4 -3 -3 -4 -4 -3 0 3 4 4 2 1 -1 -4 -9 -12 -11 -9 -8 -7 -6 -6 -7 -9 -10 -11 -11 -12 -12 -11 -11 -11 -10 -10 -11 -12 -15 -17 -18 -20 -21
-10 -11 -9 -9 -9 -10 -9 -8 -6 -3 -2 -3 -3 -1 1 4 4 3 1 -1 -1 -5 -11 -12 -9 -7 -7 -6 -5 -5 -7 -7 -8 -8 -9 -10 -11 -11 -10 -9 -8 -8 -9 -10 -10 -12 -15 -18 -20
-10 -10 -9 -9 -8 -9 -8 -6 -4 -3 -2 -1 1 3 4 4 4 2 0 -1 -2 -8 -12 -10 -8 -7 -6 -5 -4 -4 -5 -5 -5 -5 -6 -7 -9 -9 -8 -7 -7 -8 -8 -8 -9 -10 -12 -14 -17
-8 -8 -10 -8 -7 -7 -8 -7 -3 -2 -2 0 1 3 3 4 3 1 -1 -2 -4 -9 -10 -9 -7 -6 -5 -5 -4 -4 -4 -4 -4 -5 -5 -7 -9 -10 -8 -6 -5 -6 -7 -7 -8 -9 -9 -12 -15
-9 -8 -7 -9 -6 -8 -8 -4 -3 -3 -2 -1 1 2 2 3 2 0 -1 -1 -4 -6 -7 -7 -6 -6 -5 -4 -3 -3 -2 -3 -3 -4 -6 -8 -10 -10 -8 -7 -6 -5 -6 -6 -7 -8 -8 -9 -12
-6 -6 -5 -6 -7 -5 -4 -1 -2 -4 -4 -3 -1 1 2 2 1 0 -1 -1 -3 -3 -4 -4 -5 -5 -4 -3 -2 -1 -2 -2 -4 -5 -8 -12 -12 -11 -9 -8 -7 -5 -6 -6 -7 -7 -7 -8 -10
-4 -5 -4 -3 -6 -2 -1 0 -1 -3 -4 -3 -2 -0 1 1 -0 -0 -1 -1 -2 -1 -1 -1 -2 -2 -1 -1 -1 -0 -1 -2 -4 -6 -8 -14 -14 -13 -10 -8 -7 -6 -6 -6 -7 -7 -7 -6 -7
-4 -3 -2 -3 -6 -1 1 2 2 -0 -3 -4 -2 -2 -0 1 1 -0 -0 -0 -1 -0 1 0 -0 -0 -0 -0 -0 -0 -1 -3 -5 -6 -10 -12 -13 -13 -12 -10 -8 -7 -7 -7 -7 -7 -7 -5 -7
-2 -1 -0 -2 -3 -3 2 3 3 2 1 -4 -3 -3 -2 -1 -0 -0 -0 -1 -1 0 1 1 1 0 0 0 0 -1 -2 -4 -5 -9 -15 -14 -12 -12 -11 -11 -10 -10 -9 -8 -7 -7 -6 -6 -5
-2 0 1 1 -1 -2 1 3 1 1 -0 -2 -2 -2 -3 -2 -1 -1 -1 -1 1 0 1 2 1 0 0 0 -1 -2 -5 -5 -10 -15 -15 -15 -15 -15 -15 -16 -14 -12 -10 -10 -12 -13 -10 -5 -5
1 1 2 2 1 2 3 3 1 1 -0 -0 -0 0 -0 -1 -2 -2 -2 -2 -1 1 2 1 1 0 -0 -1 -3 -5 -6 -12 -13 -13 -14 -15 -18 -18 -18 -18 -16 -14 -12 -12 -10 -10 -10 -8 -5
1 1 2 2 2 3 4 6 2 1 1 1 1 1 1 1 -0 -1 -0 0 1 1 1 0 0 -1 -2 -4 -5 -10 -12 -11 -11 -13 -13 -15 -17 -17 -15 -14 -14 -13 -13 -13 -12 -11 -11 -9 -9
2 3 -0 1 2 7 6 5 5 3 1 1 1 1 1 1 0 0 0 1 0 0 -0 -1 -1 -3 -7 -11 -12 -11 -10 -11 -12 -13 -11 -13 -15 -15 -13 -13 -12 -11 -12 -12 -12 -12 -10 -10 -10
3 4 4 3 6 6 5 6 6 2 0 1 1 1 1 1 1 0 0 -0 -0 -1 -1 -4 -8 -11 -12 -12 -12 -12 -12 -12 -12 -14 -15 -15 -14 -12 -12 -11 -10 -10 -10 -9 -10 -10 -10 -9 -9
5 5 7 5 6 6 4 8 6 1 0 1 1 1 1 0 -0 -0 -0 -1 -1 -3 -5 -8 -10 -12 -14 -13 -13 -14 -16 -18 -19 -19 -17 -15 -13 -11 -10 -8 -8 -9 -8 -8 -8 -5 -6 -8 -8
1 4 5 7 1 5 4 7 5 -1 -0 1 1 1 1 0 -0 -1 -0 -1 -3 -4 -7 -9 -11 -13 -15 -17 -22 -26 -29 -34 -35 -33 -31 -26 -20 -13 -9 -10 -9 -10 -8 -6 -6 -6 -6 -5 -5
-2 -1 6 5 6 7 5 8 9 7 3 1 1 1 1 0 -0 -0 -1 -2 -3 -6 -8 -10 -13 -14 -18 -24 -32 -36 -35 -33 -31 -30 -27 -22 -19 -16 -13 -9 -5 -6 -6 -6 -6 -6 -7 -6 -6
1 2 3 4 6 7 8 8 6 6 5 1 1 1 1 -0 -0 -0 -1 -2 -4 -7 -10 -13 -14 -19 -25 -34 -35 -34 -32 -30 -27 -23 -18 -17 -16 -8 -7 -6 -6 -6 -7 -7 -7 -7 -7 -7 -7
-2 0 3 6 6 6 7 8 5 3 5 0 1 1 -0 -0 0 -0 -1 -3 -5 -9 -13 -13 -21 -25 -32 -34 -32 -30 -28 -25 -21 -13 -7 -6 -6 -7 -7 -7 -7 -7 -7 -8 -8 -8 -8 -7 -8
Wind_Speed
1 5 6 2 2 1 2 1 2 3 2 2 5 3 2 3 0 1 16 16 26 23 22 19 16 16 15 14 12 12 11 10 9 8 6 5 5 6 5 4 3 3 4 4 4 4 5 6 6
2 6 3 2 1 1 0 2 4 4 4 12 8 5 2 3 4 10 20 22 23 20 22 20 18 17 15 14 12 12 11 10 7 5 3 4 5 6 6 5 5 6 5 4 4 5 5 6 7
4 5 2 2 2 2 3 5 1 1 13 5 4 3 3 4 5 18 13 28 24 20 19 20 18 17 15 13 12 11 9 7 4 2 3 4 5 6 5 6 7 6 6 5 5 5 6 6 6
6 3 3 2 5 4 5 6 2 6 6 6 4 5 5 3 9 12 23 26 22 20 19 19 19 17 14 13 11 10 5 3 1 2 2 3 4 4 5 5 7 6 7 6 6 5 4 5 6
6 2 1 1 3 4 6 8 5 7 3 5 6 5 4 10 10 14 24 23 20 20 18 18 16 11 12 12 9 8 3 2 0 1 3 4 6 6 5 5 6 6 7 7 6 6 5 4 3
3 2 1 3 3 5 7 11 4 7 4 5 6 11 6 13 12 24 22 21 18 18 19 15 12 10 10 8 6 6 3 2 3 4 3 4 7 6 2 4 4 7 6 7 4 2 2 5 7
2 2 3 3 5 6 4 2 4 7 10 8 8 8 7 18 19 23 22 20 19 17 16 13 12 10 9 7 6 6 4 4 4 4 4 4 6 6 5 5 3 1 3 3 4 7 9 8 8
2 1 2 3 3 8 4 5 6 11 6 7 12 6 7 27 26 26 24 22 20 17 14 14 11 9 9 9 7 6 5 4 4 4 4 5 7 7 7 7 8 7 6 5 6 10 13 12 12
4 2 5 4 4 4 2 4 3 4 6 7 12 5 4 28 32 31 29 26 23 19 16 14 12 11 10 7 7 5 4 3 3 4 4 6 9 8 8 9 8 8 7 7 12 12 12 13 12
5 4 5 4 3 8 12 6 5 4 4 6 9 9 11 30 35 35 33 30 25 21 18 16 14 12 10 8 6 4 3 1 3 5 6 8 9 8 8 9 8 8 8 9 11 13 13 13 13
4 5 3 8 9 4 7 6 5 6 4 2 5 14 20 34 36 33 29 25 22 17 18 17 15 12 11 8 5 3 0 2 4 5 7 9 8 9 10 10 10 9 9 10 11 12 13 13 13
3 7 4 5 7 6 6 5 2 2 11 18 14 14 26 34 34 32 29 25 21 20 17 16 15 13 11 8 5 2 2 3 5 7 9 10 10 10 10 11 11 10 10 9 9 11 13 13 13
4 2 4 8 8 6 5 6 6 13 17 12 4 17 26 30 29 30 25 20 20 19 18 17 16 13 11 8 5 3 3 5 7 9 10 12 12 12 13 13 13 12 11 11 10 11 12 13 13
3 1 1 10 9 7 7 10 4 13 13 7 5 13 20 25 29 30 26 23 20 19 19 18 16 14 11 8 6 5 7 8 10 11 13 15 15 15 15 15 15 14 14 14 13 13 14 14 14
1 3 3 13 14 7 0 7 13 13 9 6 5 9 14 19 26 27 25 21 19 19 18 17 15 13 11 9 8 8 10 12 13 15 17 18 19 19 18 19 18 17 17 16 16 16 15 16 15
2 3 2 5 13 7 6 4 15 19 10 5 5 9 12 17 25 26 23 19 18 19 17 16 14 12 11 9 9 11 14 15 16 18 20 21 22 21 21 22 22 20 20 19 18 18 18 17 16
6 2 3 5 6 2 10 4 15 19 19 8 6 10 15 18 24 26 22 18 18 18 17 15 14 13 11 10 12 14 15 16 19 21 23 24 24 23 23 24 24 23 24 23 21 21 21 19 17
1 1 1 4 6 8 6 8 10 18 19 16 5 10 14 18 23 26 23 19 16 18 19 16 15 14 12 13 14 16 18 19 22 23 25 25 24 23 23 24 24 25 26 25 25 25 24 21 17
4 2 3 4 3 2 5 9 13 18 31 23 9 9 12 15 15 22 21 19 16 15 17 19 16 14 14 15 17 19 21 22 24 27 25 24 23 22 22 23 24 25 27 28 27 25 26 23 24
5 3 4 7 3 1 3 12 8 16 21 19 13 4 6 8 13 18 18 15 13 19 20 19 17 15 16 17 20 22 25 27 30 29 27 25 24 23 23 25 27 27 28 27 27 26 25 26 21
1 4 6 7 8 4 2 2 14 11 21 22 17 6 5 7 12 14 16 14 11 18 19 18 16 17 17 19 22 25 28 31 32 29 27 25 26 25 26 27 27 28 29 29 28 26 27 25 21
3 8 9 10 2 1 7 2 11 14 15 20 20 14 7 7 9 9 8 7 7 11 13 14 16 15 18 22 25 27 30 32 30 30 30 29 28 27 27 28 29 30 30 30 27 25 26 26 23
4 15 5 4 2 3 8 2 6 11 13 16 16 13 9 5 6 8 7 5 6 8 9 9 12 17 21 24 27 28 30 31 32 33 33 32 30 28 27 28 27 28 28 29 28 28 28 28 30
14 5 1 2 1 2 4 2 5 8 11 11 10 10 9 7 10 11 9 7 5 2 6 11 16 20 23 25 26 27 30 33 35 36 36 36 35 34 32 29 30 29 29 30 29 29 31 32 31
14 5 2 1 2 2 4 2 3 8 7 7 7 8 7 11 11 10 8 4 3 7 12 15 19 22 23 25 26 28 31 34 36 38 40 39 38 37 37 32 30 32 33 34 33 32 34 36 36
5 5 2 1 2 3 3 2 3 5 5 5 5 6 9 11 10 7 5 6 10 12 16 18 21 24 25 27 29 31 33 36 38 40 42 43 41 39 37 35 34 32 31 33 33 38 39 40 42
6 4 5 2 2 1 2 3 4 1 5 5 7 7 7 7 5 4 7 10 12 16 19 22 24 26 28 31 33 34 34 35 38 39 38 38 37 35 31 32 34 33 31 33 36 39 33 35 41
8 6 1 4 3 2 3 3 3 6 5 3 4 6 4 3 3 6 9 12 16 19 22 23 25 28 30 32 32 33 35 37 38 37 34 31 29 29 28 32 34 26 29 28 30 29 27 29 31
5 5 4 1 1 2 3 3 2 8 3 3 5 4 2 1 4 8 12 15 18 20 24 25 27 30 31 32 33 35 37 38 37 35 31 27 26 23 29 23 19 19 23 23 20 21 27 29 27
7 6 2 2 2 2 2 2 5 7 5 7 6 4 1 2 7 11 14 17 20 23 25 27 30 31 32 34 35 36 38 40 36 32 32 30 25 18 20 18 19 18 16 16 17 19 22 23 23
Wind_Direction
77 140 152 132 222 321 283 235 284 248 217 208 150 179 177 62 185 350 149 154 158 158 150 156 159 154 158 152 152 145 144 135 122 115 113 80 53 38 34 33 31 36 35 33 29 6 351 331 325
140 154 160 111 154 271 260 242 239 264 136 129 119 113 134 104 115 144 145 151 157 157 154 156 163 160 158 159 156 141 135 133 131 121 84 39 21 14 8 8 5 6 3 0 1 341 328 321 314
164 165 183 111 130 200 283 212 305 154 164 178 137 106 109 114 135 148 157 153 158 156 155 160 163 161 165 154 148 148 150 145 136 99 33 8 14 3 5 353 357 1 359 2 344 333 326 314 310
155 148 74 221 232 243 244 289 277 155 209 212 181 112 100 117 156 148 151 154 157 158 158 162 165 155 159 156 162 158 163 136 87 33 7 3 7 9 23 353 1 5 356 357 346 344 342 334 334
159 115 156 218 250 265 251 277 194 197 184 176 178 150 102 137 149 157 154 156 161 160 160 163 165 167 159 162 163 163 165 121 17 39 45 21 24 30 47 342 12 349 354 5 360 0 8 358 354
113 103 234 260 244 260 279 265 176 213 190 154 154 143 141 152 154 154 156 157 162 164 164 162 164 158 154 160 156 161 151 127 90 81 77 47 25 26 54 351 22 15 1 14 1 76 290 314 325
160 160 237 247 273 282 257 193 210 208 186 203 171 146 161 165 158 158 158 160 162 165 169 170 163 156 153 151 154 149 133 105 88 70 54 28 16 14 1 353 330 348 319 338 311 306 324 335 328
185 218 214 223 231 284 269 196 256 204 208 164 171 185 178 179 165 163 162 162 163 168 179 179 167 160 153 150 145 134 119 93 69 45 28 12 360 356 350 344 327 313 309 294 259 287 307 314 316
168 217 256 251 219 275 264 262 245 227 148 171 189 185 194 172 166 167 166 166 169 176 179 176 171 166 157 145 138 120 102 82 51 18 9 354 345 342 341 337 330 328 315 289 285 294 298 311 317
177 202 234 239 239 289 302 267 270 190 155 201 195 202 169 169 171 172 171 171 175 177 174 174 173 167 156 147 137 121 98 69 9 355 346 343 340 332 330 336 334 333 324 307 294 299 306 312 315
173 238 220 277 279 288 291 294 184 181 208 15 268 195 173 173 173 175 175 177 174 172 175 174 170 164 156 148 142 140 128 338 334 331 331 332 327 318 321 327 326 328 326 318 309 306 305 306 308
227 246 251 298 316 326 303 335 97 60 330 305 300 233 181 176 176 176 175 171 174 177 173 171 168 166 165 167 163 182 282 310 316 317 320 322 315 307 304 309 311 316 324 324 320 313 308 305 304
215 274 343 326 332 25 358 42 101 13 352 344 236 184 181 176 176 177 173 169 174 176 174 172 170 172 178 180 190 235 270 288 296 301 308 310 306 299 296 300 301 305 312 317 318 316 311 306 301
210 341 322 8 5 25 51 46 63 358 355 17 141 166 174 176 176 175 172 177 178 176 176 176 175 182 188 197 219 260 276 284 290 293 299 302 300 294 289 289 290 294 300 306 309 315 316 312 302
309 139 24 21 356 24 90 48 19 347 7 48 116 155 167 176 179 177 175 178 177 178 179 181 185 191 198 212 240 271 281 288 294 299 301 299 297 292 284 281 281 283 288 292 297 302 307 308 302
46 74 352 24 8 4 332 55 16 12 0 31 126 157 168 179 183 181 183 182 183 187 186 189 195 205 215 231 258 282 289 294 299 302 301 298 294 288 280 277 276 275 277 283 286 292 297 302 299
20 56 17 342 33 334 25 42 18 15 24 18 174 175 175 178 185 187 190 190 193 193 196 200 208 216 227 248 266 281 291 298 303 305 302 297 291 285 277 273 271 267 269 274 277 282 285 288 291
29 62 331 341 6 37 72 67 27 23 27 22 203 186 183 187 188 188 194 199 200 204 208 212 220 227 241 256 275 285 294 299 303 303 300 295 289 282 276 272 267 264 267 267 272 276 275 273 274
100 90 359 304 33 81 80 55 32 21 23 14 21 193 193 194 193 192 200 207 213 220 224 224 230 240 252 267 280 286 294 299 300 303 303 298 293 288 280 274 269 264 265 267 269 267 263 262 267
59 64 360 294 333 315 132 49 28 30 26 12 11 157 184 178 186 197 204 211 231 236 230 228 235 248 262 274 283 292 300 301 302 305 301 296 293 288 280 275 272 268 268 267 265 263 259 256 250
4 29 330 303 332 72 169 89 17 25 26 32 36 60 132 158 180 193 198 206 246 237 234 229 240 256 269 284 295 298 299 301 304 305 300 298 294 288 283 279 275 272 269 268 268 262 252 247 249
310 5 316 304 270 177 2 347 30 360 26 35 30 37 61 132 167 179 188 209 249 229 220 226 245 271 290 299 299 302 303 303 306 304 302 301 296 290 285 281 275 272 270 268 264 259 253 247 240
322 317 288 287 191 166 17 80 4 15 7 15 28 33 50 85 124 138 141 169 173 188 213 258 286 299 302 302 304 305 305 306 307 304 304 303 299 293 288 284 279 274 269 266 261 258 252 248 246
327 329 58 83 126 95 355 351 30 14 341 353 17 27 41 71 115 119 123 138 156 208 295 308 310 308 308 310 310 310 308 308 305 305 303 302 301 297 292 287 280 275 270 266 262 257 252 250 249
1 343 2 122 42 70 354 47 31 1 5 349 3 28 61 98 109 110 105 87 20 344 328 322 319 320 319 318 317 313 309 308 307 306 303 302 298 296 293 291 282 274 268 264 258 255 253 248 245
330 17 39 303 349 6 31 66 38 22 37 20 43 72 98 105 101 94 65 16 353 342 335 333 330 329 327 324 320 317 315 312 310 307 303 297 295 293 291 288 284 278 268 260 250 252 262 245 242
355 24 339 294 40 254 345 110 323 89 42 38 71 101 105 101 95 51 13 358 347 342 341 338 335 332 332 328 326 325 324 321 316 313 308 302 299 296 293 288 285 278 267 257 260 260 255 248 242
47 350 8 26 22 20 27 40 57 20 17 74 112 131 123 111 44 6 354 349 347 343 340 340 338 336 333 333 333 333 330 326 322 319 315 308 301 298 294 291 292 285 274 261 255 261 249 236 227
360 24 19 85 4 329 338 69 271 303 304 155 166 166 160 58 351 349 350 347 343 342 343 341 340 338 340 340 339 336 334 331 329 327 324 317 307 300 299 298 283 264 266 270 260 242 234 240 239
64 46 61 360 359 293 308 78 336 8 42 144 155 177 181 343 348 348 343 342 345 345 345 345 345 344 345 345 344 341 340 339 336 333 327 318 310 308 306 305 295 285 276 262 250 240 236 223 224
Height
1507 1508 1509 1509 1514 1511 1509 1505 1504 1502 1502 1502 1503 1503 1502 1505 1504 1508 1513 1516 1520 1524 1528 1532 1535 1537 1539 1540 1541 1541 1542 1542 1543 1543 1542 1541 1541 1541 1541 1541 1541 1541 1540 1540 1539 1539 1537 1536 1536
1506 1507 1509 1509 1512 1513 1506 1504 1502 1499 1502 1502 1503 1504 1504 1505 1507 1509 1513 1516 1521 1524 1528 1531 1534 1536 1538 1540 1541 1541 1542 1542 1542 1542 1541 1541 1541 1541 1541 1540 1540 1539 1539 1539 1538 1538 1537 1536 1535
1505 1507 1509 1508 1515 1510 1504 1499 1499 1501 1501 1502 1503 1504 1506 1508 1509 1511 1512 1516 1521 1525 1528 1531 1534 1536 1538 1540 1541 1542 1541 1541 1541 1541 1541 1541 1542 1541 1540 1539 1539 1539 1538 1537 1537 1537 1537 1536 1535
1504 1507 1510 1508 1509 1505 1501 1494 1499 1501 1502 1501 1501 1504 1507 1507 1510 1512 1514 1517 1522 1525 1528 1531 1533 1535 1537 1539 1540 1541 1540 1541 1541 1542 1542 1541 1541 1540 1540 1539 1538 1538 1537 1537 1536 1536 1535 1535 1535
1504 1505 1507 1510 1508 1502 1499 1496 1497 1498 1498 1499 1500 1503 1507 1508 1509 1511 1515 1519 1522 1525 1528 1531 1532 1534 1535 1538 1539 1540 1540 1541 1541 1541 1541 1541 1541 1540 1540 1538 1538 1537 1536 1536 1536 1535 1535 1534 1533
1504 1506 1508 1508 1508 1500 1497 1494 1495 1496 1497 1499 1500 1502 1507 1507 1510 1511 1515 1518 1522 1525 1528 1531 1532 1533 1535 1537 1538 1539 1540 1540 1541 1541 1541 1540 1540 1540 1539 1538 1538 1537 1536 1536 1536 1535 1534 1533 1532
1503 1503 1504 1507 1506 1499 1493 1492 1492 1491 1492 1495 1496 1501 1506 1506 1509 1512 1515 1518 1522 1525 1528 1530 1532 1534 1535 1537 1538 1539 1540 1540 1540 1540 1540 1540 1540 1539 1539 1538 1537 1537 1536 1536 1535 1534 1533 1532 1531
1503 1502 1506 1505 1502 1496 1491 1491 1488 1488 1489 1492 1496 1495 1501 1500 1506 1510 1515 1518 1522 1525 1528 1530 1532 1534 1536 1537 1538 1539 1540 1540 1540 1540 1540 1540 1539 1538 1537 1537 1536 1536 1535 1535 1533 1532 1531 1530 1530
1502 1505 1503 1501 1500 1490 1490 1490 1487 1486 1488 1490 1492 1493 1494 1497 1503 1508 1512 1516 1520 1524 1528 1530 1532 1534 1536 1538 1539 1539 1540 1540 1540 1539 1539 1539 1538 1537 1536 1535 1535 1534 1533 1533 1531 1530 1529 1529 1528
1498 1500 1498 1494 1493 1489 1488 1489 1487 1488 1488 1489 1489 1490 1493 1496 1500 1504 1508 1514 1519 1523 1526 1529 1532 1534 1536 1538 1539 1540 1540 1540 1540 1539 1538 1537 1536 1535 1535 1533 1533 1532 1532 1530 1529 1528 1527 1527 1526
1497 1494 1492 1490 1489 1489 1488 1485 1484 1485 1486 1488 1490 1491 1492 1494 1499 1504 1509 1514 1519 1523 1526 1528 1531 1533 1535 1537 1538 1539 1539 1539 1539 1538 1538 1537 1535 1534 1533 1532 1531 1530 1529 1528 1527 1526 1526 1525 1524
1494 1491 1492 1489 1488 1488 1487 1487 1487 1489 1492 1487 1485 1485 1489 1493 1496 1503 1508 1513 1517 1522 1525 1528 1530 1533 1535 1537 1538 1538 1538 1538 1538 1537 1536 1535 1534 1532 1531 1530 1528 1527 1527 1526 1525 1524 1523 1522 1521
1492 1490 1490 1488 1487 1487 1485 1486 1487 1492 1489 1484 1482 1483 1486 1492 1498 1504 1510 1515 1518 1521 1524 1527 1529 1532 1534 1535 1537 1537 1537 1537 1537 1536 1535 1533 1532 1531 1529 1528 1526 1525 1524 1523 1522 1521 1520 1519 1518
1490 1490 1489 1488 1487 1486 1485 1490 1488 1495 1492 1488 1487 1488 1491 1494 1499 1504 1509 1513 1517 1521 1524 1526 1528 1531 1533 1534 1535 1536 1536 1536 1535 1534 1532 1531 1530 1528 1526 1525 1523 1522 1521 1520 1519 1518 1517 1516 1515
1490 1490 1489 1488 1488 1487 1486 1489 1499 1497 1493 1491 1491 1493 1496 1499 1502 1506 1509 1513 1518 1521 1524 1527 1529 1531 1532 1533 1534 1534 1534 1533 1532 1531 1529 1527 1526 1524 1522 1521 1519 1518 1517 1517 1515 1514 1514 1513 1511
1491 1492 1492 1491 1490 1489 1486 1495 1500 1498 1494 1493 1493 1495 1498 1501 1504 1508 1512 1515 1519 1522 1524 1526 1529 1530 1531 1532 1532 1532 1531 1530 1528 1527 1525 1523 1521 1519 1518 1516 1515 1514 1512 1512 1511 1511 1510 1509 1508
1495 1496 1498 1493 1494 1492 1490 1499 1503 1500 1496 1493 1494 1495 1497 1499 1504 1508 1512 1515 1519 1522 1524 1526 1527 1529 1529 1530 1530 1530 1528 1526 1525 1523 1520 1518 1516 1514 1512 1511 1510 1509 1507 1507 1506 1505 1506 1505 1505
1501 1500 1499 1498 1494 1495 1498 1503 1504 1502 1497 1495 1493 1495 1497 1500 1502 1507 1511 1515 1519 1521 1523 1525 1526 1527 1527 1528 1527 1526 1524 1522 1520 1518 1515 1512 1510 1508 1506 1505 1504 1504 1502 1502 1501 1501 1500 1501 1501
1500 1501 1502 1497 1496 1499 1504 1503 1503 1502 1495 1494 1494 1496 1498 1501 1505 1508 1512 1516 1519 1522 1523 1523 1525 1525 1525 1525 1524 1522 1521 1518 1516 1512 1508 1505 1503 1502 1500 1498 1497 1496 1495 1495 1495 1495 1495 1495 1495
1502 1503 1503 1498 1498 1498 1503 1504 1504 1504 1504 1502 1498 1498 1501 1503 1506 1510 1513 1518 1521 1521 1522 1522 1523 1524 1523 1522 1521 1519 1516 1513 1509 1506 1503 1500 1497 1494 1492 1491 1490 1489 1488 1487 1488 1488 1489 1489 1490
1503 1504 1504 1505 1500 1499 1502 1504 1503 1507 1507 1505 1504 1503 1504 1506 1509 1511 1514 1517 1520 1520 1521 1522 1523 1522 1521 1520 1518 1515 1511 1507 1502 1499 1496 1493 1490 1487 1485 1483 1481 1480 1480 1479 1479 1480 1480 1483 1484
1507 1506 1505 1502 1501 1500 1501 1502 1507 1508 1508 1510 1510 1509 1510 1510 1511 1513 1516 1518 1519 1519 1521 1522 1522 1521 1520 1517 1514 1510 1506 1500 1496 1492 1488 1485 1482 1479 1477 1475 1473 1472 1471 1470 1471 1472 1473 1475 1477
1509 1505 1504 1501 1500 1502 1505 1506 1510 1511 1509 1514 1516 1516 1514 1514 1515 1516 1517 1519 1519 1520 1521 1522 1522 1520 1517 1513 1509 1504 1498 1494 1488 1484 1479 1476 1474 1471 1469 1466 1464 1463 1462 1461 1462 1463 1464 1466 1469
1510 1502 1503 1503 1502 1508 1514 1511 1517 1520 1524 1520 1520 1520 1519 1518 1518 1520 1520 1521 1521 1522 1522 1522 1519 1516 1512 1508 1504 1498 1493 1487 1481 1476 1472 1467 1464 1461 1458 1457 1455 1454 1453 1452 1452 1454 1455 1457 1459
1511 1506 1506 1505 1506 1513 1514 1513 1524 1525 1527 1526 1524 1522 1522 1521 1522 1523 1523 1524 1524 1523 1522 1519 1516 1512 1508 1503 1498 1493 1487 1480 1474 1467 1461 1457 1452 1449 1446 1446 1444 1442 1441 1441 1442 1443 1444 1446 1449
1519 1516 1519 1517 1513 1512 1514 1522 1527 1529 1529 1528 1527 1526 1526 1525 1526 1526 1526 1526 1525 1523 1520 1517 1513 1508 1503 1498 1491 1485 1479 1472 1465 1458 1451 1445 1441 1437 1433 1431 1430 1429 1429 1429 1429 1429 1431 1433 1436
1522 1523 1526 1525 1528 1521 1520 1531 1530 1528 1529 1530 1529 1529 1529 1529 1529 1528 1528 1526 1524 1521 1518 1513 1509 1503 1498 1491 1485 1478 1471 1463 1455 1447 1440 1433 1428 1424 1421 1418 1415 1413 1413 1414 1415 1416 1417 1420 1423
1528 1529 1527 1529 1529 1525 1521 1523 1526 1527 1527 1530 1531 1531 1531 1531 1530 1530 1528 1526 1523 1520 1515 1511 1506 1500 1493 1487 1479 1471 1463 1455 1447 1438 1430 1424 1418 1413 1409 1406 1402 1400 1400 1401 1402 1402 1404 1408 1413
1533 1535 1537 1538 1539 1529 1525 1529 1532 1529 1526 1529 1531 1532 1532 1532 1532 1530 1528 1526 1522 1518 1513 1508 1503 1496 1489 1482 1474 1466 1458 1448 1439 1429 1421 1414 1408 1403 1399 1395 1392 1392 1392 1392 1392 1393 1397 1400 1404
1538 1542 1548 1541 1536 1539 1533 1532 1532 1529 1527 1529 1532 1533 1533 1533 1532 1531 1528 1525 1521 1517 1512 1506 1499 1493 1486 1478 1470 1462 1452 1441 1431 1422 1413 1405 1399 1395 1392 1389 1387 1385 1384 1384 1384 1386 1388 1393 1397